Location: Cossonay
(46.5833°N, 6.4167°E)
Time: 21:49:33
(UTC+00:00)

CBERS-1 - Pass Details

Date: 02 October 2020
Orbit: 770 x 777 km, 98.6° (Epoch: 22 October)

Event Time Altitude Azimuth Distance (km) Brightness Sun altitude
Rises 01:17:22 0° 21° (NNE) 3,258 8.0 -40.5°
Reaches altitude 10° 01:19:51 10° 29° (NNE) 2,328 7.1 -40.3°
Enters shadow 01:21:31 19° 40° (NE) 1,760 6.4 -40.1°
